User: anonymous   Login
Location: Pine Mountain Observatory
(43.7910°N, 120.9377°W)
Time: 12:50:24
(UTC-08:00)
Language:

Cosmos 1076 Rocket - Orbit

View from above orbital plane
View from above orbital plane
View from above satellite
View from above satellite

Ground track
Ground track

The orbit data is extracted from the following two-line orbital elements,

1 11267U 79011B   14353.22993569  .00000974  00000-0  10227-3 0  6088
2 11267 082.5245 009.2843 0017208 024.1051 108.1616 14.88358746939943
Epoch (UTC): 19 December 2014 05:31:06
Eccentricity: 0.0017208
inclination: 82.5245°
perigee height: 591 km
apogee height: 615 km
right ascension of ascending node: 9.2843°
argument of perigee: 24.1051°
revolutions per day: 14.88358746
mean anomaly at epoch: 108.1616°
orbit number at epoch: 93994

The dashed part of the orbit path shows where the satellite is in the earth's shadow,  

DLR